Flag for U.S.A. Weather past 2 weeks in Sunrise Manor, Nevada, U.S.A.

Now
44 °F

Clear.


Feels Like: 42 °F
Forecast: 42 / 68 °F
Wind: 5 mph from North

Location: Nellis Air Force Base

Current Time: Dec 22, 2014 at 3:38:11 AM

Latest Report: Dec 22, 2014 at 2:58 AM


Visibility: 10 mi

Pressure: 30.07 "Hg

Humidity: 84%

Dew point: 40 °F

Location of Sunrise ManorLocation

Historic Weather in Sunrise Manor — Graph

°F

Sunrise Manor temperature yesterday

Maximum temperature yesterday: 55 °F (at 2:58 PM)
Minimum temperature yesterday: 38 °F (at 6:58 AM)
Average temperature yesterday: 47 °F

Past Weeks' High & Low Weather Summary

 TemperatureHumidityPressure
High68 °F (Dec 9, 1:58 PM)97% (Dec 7, 1:58 AM)30.32 "Hg (Dec 7, 1:58 AM)
Low34 °F (Dec 14, 5:58 AM)30% (Dec 10, 1:58 PM)29.85 "Hg (Dec 12, 10:58 AM)
Average50 °F68%30.09 "Hg
* Reported Dec 7 1:58 AM — Dec 22 1:58 AM, Sunrise Manor, Weather by CustomWeather, © 2014

Note: Actual official high and low records may vary slightly from our data, if they occured in-between our weather recording intervals... More about our weather records

Advertising

Sunrise Manor weather history for previous 24 hours

 ConditionsComfort  
Time TempWeatherWind HumidityBarometerVisibility
1:58 AM
Dec 22
47 °FClear.10 mph77%30.07 "Hg10 mi
12:58 AM47 °FClear.10 mph78%30.07 "Hg10 mi
11:58 PM
Dec 21
46 °FClear.9 mph82%30.07 "Hg10 mi
10:58 PM48 °FClear.12 mph75%30.07 "Hg10 mi
9:58 PM49 °FClear.14 mph75%30.08 "Hg10 mi
8:58 PM46 °FClear.9 mph83%30.08 "Hg10 mi
7:58 PM45 °FClear.5 mph83%30.08 "Hg10 mi
6:58 PM50 °FClear.No wind72%30.09 "Hg10 mi
5:58 PM50 °FClear.2 mph71%30.08 "Hg10 mi
4:58 PM52 °FClear.7 mph67%30.08 "Hg10 mi
3:58 PM55 °FSunny.No wind57%30.07 "Hg10 mi
2:58 PM55 °FSunny.1 mph56%30.08 "Hg10 mi
1:58 PM55 °FSunny.2 mph59%30.08 "Hg10 mi
12:58 PM54 °FSunny.No wind61%30.08 "Hg10 mi
11:58 AM52 °FSunny.1 mph66%30.13 "Hg10 mi
10:58 AM51 °FSunny.No wind69%30.15 "Hg10 mi
9:58 AM49 °FSunny.6 mph72%30.16 "Hg10 mi
8:58 AM47 °FSunny.5 mph78%30.16 "Hg10 mi
7:58 AM41 °FSunny.5 mph90%30.18 "Hg10 mi
6:58 AM38 °FSunny.6 mph92%30.16 "Hg10 mi
5:58 AM42 °FClear.2 mph86%30.14 "Hg10 mi
4:58 AM39 °FClear.3 mph91%30.13 "Hg10 mi
3:58 AM40 °FClear.3 mph86%30.14 "Hg10 mi
Weather by CustomWeather, © 2014

See weather overviewHow to use our weather pages